Effective Sunday, March 17, 2024, the National Weather Service National Data Buoy Center will discontinue its Dial-A-Buoy Interactive Voice Response system. For more information, see Service Change Notice 24-06 (PDF).

Station PTCR1 - 8452951 - Potter Cove, Prudence Island, RI Image indicating link to RSS feed of recent meteorological observations for station PTCR1


Conditions at PTCR1 as of
(9:00 am EST)
1400 GMT on 02/26/2024:
     

Click on the graph icon in the table below to see a time series plot of the last five days of that observation.

5-day plot - Wind Direction Wind Direction (WDIR): W ( 260 deg true )
5-day plot - Wind Speed Wind Speed (WSPD): 8.9 kts
5-day plot - Wind Gust Wind Gust (GST): 14.0 kts
5-day plot - Atmospheric Pressure Atmospheric Pressure (PRES):30.08 in
5-day plot - Pressure Tendency Pressure Tendency (PTDY):+0.02 in ( Rising )
5-day plot - Air Temperature Air Temperature (ATMP): 41.5 °F
5-day plot - Wind Chill Wind Chill (CHILL): 35.4 °F
5-day plot - Wind Speed at 10 Meters Wind Speed at 10 meters (WSPD10M): 9.7 kts
5-day plot - Wind Speed at 20 Meters Wind Speed at 20 meters (WSPD20M): 9.7 kts
5-day plot -  Wind Speed, Wind Gust and Atmospheric Pressure Combined plot of Wind Speed, Gust, and Air Pressure
NOS Water Level Observation Network Water Level
Previous observations
TIME
(EST)
5-day plot - Wind Direction
WDIR
 
5-day plot - Wind Speed
WSPD
kts
5-day plot - Wind Gust
GST
kts
5-day plot - Wave Height
WVHT
ft
5-day plot - Dominant Wave Period
DPD
sec
5-day plot - Average Wave Period
APD
sec
5-day plot - Mean Wave Direction
MWD
 
5-day plot - Atmospheric Pressure
PRES
in
5-day plot - Pressure Tendency
PTDY
in
5-day plot - Air Temperature
ATMP
°F
5-day plot - Water Temperature
WTMP
°F
5-day plot - Dew Point
DEWP
°F
5-day plot - Salinity
SAL
psu
5-day plot - Visibility
VIS
nmi
5-day plot - Tide (above MLLW)
TIDE
ft
2024-02-26 08:54 amWSW 8.9 12.0----30.08- 41.4-----
2024-02-26 08:48 amWSW 8.0 12.0----30.07- 41.5-----
2024-02-26 08:42 amWSW 8.0 12.0----30.07- 41.5-----
2024-02-26 08:36 amWSW 8.0 11.1----30.07- 41.2-----
2024-02-26 08:30 amWSW 7.0 9.9----30.07- 41.0-----
2024-02-26 08:24 amWSW 6.0 9.9----30.08- 40.8-----
2024-02-26 08:18 amWSW 8.0 11.1----30.08- 40.3-----
2024-02-26 08:12 amWSW 8.0 11.1----30.07- 40.3-----
2024-02-26 08:06 amWSW 7.0 11.1----30.07- 40.3-----
2024-02-26 08:00 amWSW 6.0 12.0----30.07+0.00 39.4-----
2024-02-26 07:54 amWSW 6.0 12.0----30.07- 39.0-----
2024-02-26 07:48 amWSW 7.0 12.0----30.07- 39.2-----
2024-02-26 07:42 amWSW 8.0 12.0----30.07- 39.2-----
2024-02-26 07:36 amWSW 7.0 12.0----30.07- 39.2-----
2024-02-26 07:30 amWSW 7.0 11.1----30.06- 39.2-----
2024-02-26 07:24 amWSW 7.0 11.1----30.06- 39.0-----
2024-02-26 07:18 amWSW 7.0 11.1----30.06- 38.5-----
2024-02-26 07:12 amWSW 6.0 9.9----30.06- 38.1-----
2024-02-26 07:06 amWSW 7.0 9.9----30.06- 38.1-----
2024-02-26 07:00 amWSW 6.0 8.9----30.06-0.02 37.9-----
2024-02-26 06:54 amWSW 6.0 8.9----30.06- 37.9-----
2024-02-26 06:48 amWSW 7.0 8.9----30.06- 37.9-----
2024-02-26 06:42 amWSW 7.0 11.1----30.06- 37.8-----
2024-02-26 06:36 amWSW 7.0 11.1----30.06- 37.8-----
2024-02-26 06:30 amWSW 6.0 9.9----30.06- 37.8-----
2024-02-26 06:24 amWSW 8.0 13.0----30.06- 37.8-----
2024-02-26 06:18 amWSW 8.9 12.0----30.06- 37.9-----
2024-02-26 06:12 amWSW 7.0 12.0----30.06- 37.6-----
2024-02-26 06:06 amWSW 8.0 12.0----30.06- 37.8-----
2024-02-26 06:00 amWSW 7.0 11.1----30.06-0.04 37.6-----
2024-02-26 05:54 amWSW 8.0 14.0----30.06- 37.6-----
2024-02-26 05:48 amWSW 8.0 12.0----30.06- 37.6-----
2024-02-26 05:42 amWSW 6.0 12.0----30.06- 37.4-----
2024-02-26 05:36 amWSW 7.0 12.0----30.06- 37.4-----
2024-02-26 05:30 amWSW 8.0 12.0----30.06- 37.4-----
2024-02-26 05:24 amWSW 8.0 13.0----30.06- 37.6-----
2024-02-26 05:18 amWSW 8.9 13.0----30.06- 37.6-----
2024-02-26 05:12 amWSW 8.0 14.0----30.06- 37.6-----
2024-02-26 05:06 amWSW 8.9 13.0----30.06- 37.6-----
2024-02-26 05:00 amWSW 8.0 12.0----30.06-0.04 37.4-----
2024-02-26 04:54 amWSW 8.9 14.0----30.06- 37.6-----
2024-02-26 04:48 amWSW 8.9 12.0----30.06- 37.4-----
2024-02-26 04:42 amWSW 8.0 14.0----30.07- 37.2-----
2024-02-26 04:36 amWSW 9.9 13.0----30.07- 37.2-----
2024-02-26 04:30 amWSW 8.9 12.0----30.07- 37.2-----
2024-02-26 04:24 amWSW 7.0 13.0----30.07- 37.2-----
2024-02-26 04:18 amWSW 8.9 13.0----30.08- 37.2-----
2024-02-26 04:12 amWSW 7.0 11.1----30.08- 37.2-----
2024-02-26 04:06 amWSW 8.0 13.0----30.08- 37.2-----
2024-02-26 04:00 amWSW 8.0 11.1----30.09-0.02 37.0-----
2024-02-26 03:54 amWSW 7.0 11.1----30.09- 36.7-----
2024-02-26 03:48 amWSW 6.0 12.0----30.09- 36.5-----
2024-02-26 03:42 amWSW 7.0 9.9----30.09- 36.5-----
2024-02-26 03:36 amWSW 6.0 14.0----30.09- 36.3-----
2024-02-26 03:30 amWSW 7.0 14.0----30.09- 36.3-----
2024-02-26 03:24 amWSW 7.0 9.9----30.09- 36.1-----
2024-02-26 03:18 amWSW 8.0 13.0----30.09- 36.1-----
2024-02-26 03:12 amWSW 8.0 11.1----30.10- 36.0-----
2024-02-26 03:06 amWSW 8.0 12.0----30.10- 36.1-----
2024-02-26 03:00 amWSW 7.0 12.0----30.10-0.02 35.8-----
2024-02-26 02:54 amWSW 8.0 9.9----30.10- 35.6-----
2024-02-26 02:48 amWSW 7.0 12.0----30.11- 35.6-----
2024-02-26 02:42 amWSW 7.0 11.1----30.10- 35.4-----
2024-02-26 02:36 amWSW 6.0 11.1----30.10- 35.1-----
2024-02-26 02:30 amWSW 6.0 9.9----30.10- 34.9-----
2024-02-26 02:24 amWSW 6.0 9.9----30.11- 34.5-----
2024-02-26 02:18 amWSW 8.0 11.1----30.11- 34.7-----
2024-02-26 02:12 amWSW 8.0 12.0----30.10- 34.5-----
2024-02-26 02:06 amWSW 8.0 13.0----30.10- 34.5-----
2024-02-26 02:00 amWSW 7.0 11.1----30.10-0.03 34.3-----
2024-02-26 01:54 amWSW 7.0 13.0----30.10- 34.3-----
2024-02-26 01:48 amWSW 7.0 9.9----30.11- 34.0-----
2024-02-26 01:42 amWSW 6.0 11.1----30.11- 33.8-----
2024-02-26 01:36 amWSW 5.1 9.9----30.11- 33.4-----
2024-02-26 01:30 amWSW 7.0 9.9----30.11- 33.6-----
2024-02-26 01:24 amWSW 5.1 12.0----30.10- 33.4-----
2024-02-26 01:18 amWSW 7.0 11.1----30.11- 33.6-----
2024-02-26 01:12 amWSW 7.0 11.1----30.11- 33.4-----
2024-02-26 01:06 amWSW 7.0 11.1----30.10- 33.3-----
2024-02-26 01:00 amWSW 5.1 7.0----30.11-0.03 33.1-----
2024-02-26 12:54 amWSW 5.1 7.0----30.11- 32.9-----
2024-02-26 12:48 amWSW 6.0 11.1----30.11- 32.9-----
2024-02-26 12:42 amWSW 5.1 8.0----30.11- 32.7-----
2024-02-26 12:36 amWSW 6.0 9.9----30.11- 32.5-----
2024-02-26 12:30 amWSW 6.0 9.9----30.11- 32.5-----
2024-02-26 12:24 amWSW 6.0 11.1----30.11- 32.7-----
2024-02-26 12:18 amWSW 8.0 11.1----30.11- 32.7-----
2024-02-26 12:12 amWSW 5.1 8.9----30.12- 32.7-----
2024-02-26 12:06 amWSW 6.0 11.1----30.12- 32.7-----
2024-02-26 12:00 amWSW 6.0 12.0----30.12-0.02 32.7-----
2024-02-25 11:54 pmWSW 8.0 11.1----30.12- 32.7-----
2024-02-25 11:48 pmWSW 8.0 13.0----30.12- 32.9-----
2024-02-25 11:42 pmWSW 8.0 12.0----30.12- 32.7-----
2024-02-25 11:36 pmWSW 7.0 11.1----30.12- 32.5-----
2024-02-25 11:30 pmWSW 7.0 11.1----30.12- 32.4-----
2024-02-25 11:24 pmWSW 7.0 11.1----30.13- 32.2-----
2024-02-25 11:18 pmWSW 5.1 11.1----30.13- 32.2-----
2024-02-25 11:12 pmWSW 8.0 13.0----30.13- 32.2-----
2024-02-25 11:06 pmWSW 6.0 9.9----30.13- 32.0-----
2024-02-25 11:00 pmWSW 6.0 9.9----30.13+0.00 32.2-----
2024-02-25 10:54 pmWSW 7.0 11.1----30.13- 32.4-----
2024-02-25 10:48 pmWSW 7.0 9.9----30.13- 32.4-----
2024-02-25 10:42 pmWSW 7.0 11.1----30.13- 32.2-----
2024-02-25 10:36 pmWSW 5.1 8.9----30.13- 32.2-----
2024-02-25 10:30 pmWSW 6.0 11.1----30.12- 32.4-----
2024-02-25 10:24 pm SW 7.0 11.1----30.13- 32.4-----
2024-02-25 10:18 pmWSW 6.0 8.9----30.13- 32.2-----
2024-02-25 10:12 pmWSW 6.0 9.9----30.13- 32.0-----
2024-02-25 10:06 pmWSW 6.0 11.1----30.13- 32.0-----
2024-02-25 10:00 pmWSW 5.1 9.9----30.13- 31.8-----
2024-02-25 09:54 pmWSW 6.0 9.9----30.13- 32.0-----
2024-02-25 09:48 pmWSW 7.0 9.9----30.13- 32.0-----
2024-02-25 09:42 pmWSW 6.0 9.9----30.14- 31.8-----
2024-02-25 09:36 pmWSW 7.0 11.1----30.14- 31.8-----
2024-02-25 09:30 pmWSW 7.0 12.0----30.14- 31.6-----
2024-02-25 09:24 pmWSW 6.0 9.9----30.14- 31.8-----
2024-02-25 09:18 pmWSW 8.0 11.1----30.14- 31.8-----
2024-02-25 09:12 pmWSW 7.0 9.9----30.15- 31.8-----
2024-02-25 09:06 pmWSW 6.0 11.1----30.14- 31.8-----
2024-02-25 09:00 pmWSW 7.0 12.0----30.14+0.01 31.8-----
2024-02-25 08:54 pmWSW 6.0 11.1----30.14- 31.8-----
2024-02-25 08:48 pmWSW 7.0 12.0----30.14- 31.8-----
2024-02-25 08:42 pmWSW 7.0 12.0----30.13- 31.8-----
2024-02-25 08:36 pmWSW 7.0 12.0----30.14- 32.0-----
2024-02-25 08:30 pmWSW 6.0 11.1----30.14- 31.8-----
2024-02-25 08:24 pmWSW 7.0 11.1----30.14- 31.6-----
2024-02-25 08:18 pm SW 6.0 11.1----30.13- 31.6-----
2024-02-25 08:12 pm SW 8.0 12.0----30.13- 31.3-----
2024-02-25 08:06 pm SW 5.1 9.9----30.13- 31.1-----
2024-02-25 08:00 pmWSW 7.0 12.0----30.13+0.01------
2024-02-25 07:54 pmWSW 7.0 11.1----30.13-------
2024-02-25 07:48 pm SW 6.0 11.1----30.13- 30.7-----
2024-02-25 07:42 pm SW 6.0 9.9----30.13- 30.7-----
2024-02-25 07:36 pm SW 5.1 9.9----30.13- 30.7-----
2024-02-25 07:30 pmWSW 7.0 12.0----30.13- 30.7-----
2024-02-25 07:24 pmWSW 7.0 11.1----30.14- 30.7-----
2024-02-25 07:18 pmWSW 8.0 12.0----30.14-------
2024-02-25 07:12 pmWSW 8.0 12.0----30.14-------
2024-02-25 07:06 pmWSW 6.0 11.1----30.14-------
2024-02-25 07:00 pmWSW 8.0 13.0------------
2024-02-25 06:54 pmWSW 8.9 14.0------------
2024-02-25 06:48 pmWSW 8.9 15.0----30.14- 30.6-----
2024-02-25 06:42 pmWSW 8.0 13.0----30.14- 30.6-----
2024-02-25 06:36 pmWSW 7.0 13.0----30.14- 30.6-----
2024-02-25 06:30 pmWSW 8.9 14.0----30.14- 30.6-----
2024-02-25 06:24 pmWSW 8.9 13.0----30.14- 30.6-----
2024-02-25 06:00 pm SW 6.0 11.1----30.13- 30.7-----
2024-02-25 05:54 pm SW 7.0 12.0----30.12- 31.1-----
2024-02-25 05:48 pm SW 7.0 9.9----30.12- 31.1-----
2024-02-25 05:42 pmWSW 6.0 11.1----30.12- 31.1-----
2024-02-25 05:36 pm SW 6.0 9.9----30.12- 31.3-----
2024-02-25 05:30 pm SW 5.1 11.1----30.12- 31.6-----
2024-02-25 05:24 pm SW 6.0 8.9----30.12- 31.6-----
2024-02-25 05:18 pmSSW 6.0 8.9----30.12- 31.6-----
2024-02-25 05:12 pmSSW 5.1 8.9----30.12- 31.6-----
2024-02-25 05:06 pm SW 6.0 9.9----30.12- 31.8-----
2024-02-25 05:00 pmSSW 6.0 11.1----30.12-0.01 31.6-----
2024-02-25 04:54 pmSSW 5.1 12.0----30.12- 31.8-----
2024-02-25 04:48 pmSSW 6.0 9.9----30.12-------
2024-02-25 04:42 pmSSW 5.1 12.0----30.11-------
2024-02-25 04:36 pmSSW 5.1 9.9----30.12-------
2024-02-25 04:30 pm-------30.12-------
2024-02-25 04:24 pm-------30.12-------
2024-02-25 04:18 pmSSW 8.0 12.0----30.12- 31.6-----
2024-02-25 04:12 pmSSW 7.0 11.1----30.12- 31.8-----
2024-02-25 04:06 pmSSW 6.0 13.0----30.12- 31.6-----
2024-02-25 04:00 pmSSW 8.9 15.0----30.12-0.03------
2024-02-25 03:54 pmSSW 7.0 14.0----30.12-------
2024-02-25 03:48 pm SW 8.0 13.0----30.12- 31.6-----
2024-02-25 03:42 pmSSW 6.0 9.9----30.12- 31.6-----
2024-02-25 03:36 pmSSW 7.0 12.0----30.12- 31.6-----
2024-02-25 03:30 pmSSW 7.0 12.0----30.12- 31.6-----
2024-02-25 03:24 pmSSW 7.0 15.0----30.12- 31.6-----
2024-02-25 03:18 pmSSW 7.0 12.0----30.12-------
2024-02-25 03:12 pm SW 6.0 12.0----30.12-------
2024-02-25 03:06 pm S 5.1 11.1----30.12-------
2024-02-25 03:00 pm SW 5.1 11.1------------
2024-02-25 02:54 pmSSW 4.1 9.9------------
2024-02-25 02:48 pmSSW 6.0 12.0----30.12- 32.7-----
2024-02-25 02:42 pm SW 6.0 8.9----30.13- 32.5-----
2024-02-25 02:36 pmSSW 5.1 11.1----30.13- 32.7-----
2024-02-25 02:30 pm SW 5.1 11.1----30.13- 32.5-----
2024-02-25 02:24 pmSSW 7.0 11.1----30.13- 32.4-----
2024-02-25 02:18 pmSSW 5.1 12.0----30.13- 32.5-----
2024-02-25 02:12 pm SW 6.0 12.0----30.13- 32.7-----
2024-02-25 02:06 pm SW 6.0 11.1----30.13- 32.4-----
2024-02-25 02:00 pm SW 5.1 8.9----30.13-0.05 32.7-----
2024-02-25 01:54 pm SW 6.0 8.0----30.14- 32.7-----
2024-02-25 01:48 pmSSW 4.1 7.0----30.14- 31.6-----
2024-02-25 01:42 pm SW 4.1 6.0----30.14- 32.0-----
2024-02-25 01:36 pmSSW 4.1 8.0----30.14- 31.5-----
2024-02-25 01:30 pmSSW 2.9 7.0----30.14-------
2024-02-25 01:24 pm SW 4.1 5.1----30.14-------
2024-02-25 01:18 pm S 2.9 5.1----30.14- 32.5-----
2024-02-25 01:12 pm S 1.9 5.1----30.14- 31.6-----
2024-02-25 01:06 pmWSW 1.9 5.1----30.14- 31.6-----
2024-02-25 01:00 pmSSW 2.9 6.0----30.15-0.04 30.2-----
2024-02-25 12:54 pm SW 2.9 6.0----30.15- 31.5-----
2024-02-25 12:48 pmWSW 1.9 5.1----30.15- 31.5-----
2024-02-25 12:42 pmSSW 2.9 6.0----30.15- 30.4-----
2024-02-25 12:36 pmWNW 1.0 5.1----30.15- 31.5-----
2024-02-25 12:30 pm- 0.0 2.9----30.16- 30.7-----
2024-02-25 12:24 pm E 1.0 2.9----30.16- 30.7-----
2024-02-25 12:18 pm E 1.9 5.1----30.16- 30.0-----
2024-02-25 12:12 pm E 4.1 5.1----30.16- 29.1-----
2024-02-25 12:06 pm E 1.0 4.1----30.16- 30.4-----
2024-02-25 12:00 pm E 2.9 5.1----30.17-0.02 29.8-----
2024-02-25 11:54 am E 1.9 4.1----30.17- 29.7-----
2024-02-25 11:48 amESE 2.9 5.1----30.17- 28.4-----
2024-02-25 11:42 amESE 2.9 5.1----30.17- 28.8-----
2024-02-25 11:36 amENE 2.9 4.1----30.18- 27.9-----
2024-02-25 11:30 am E 2.9 4.1----30.18- 27.7-----
2024-02-25 11:24 am E 1.9 4.1----30.18- 28.0-----
2024-02-25 11:18 am E 1.9 4.1----30.18-------
2024-02-25 11:12 am E 2.9 6.0----30.18-------
2024-02-25 11:06 am E 2.9 5.1----30.18-------
2024-02-25 11:00 amENE 5.1 6.0----30.18-0.01------
2024-02-25 10:54 am NE 2.9 4.1----30.18-------
2024-02-25 10:48 am NE 2.9 5.1----30.18- 26.6-----
2024-02-25 10:42 amNNE 1.9 6.0----30.18- 27.7-----
2024-02-25 10:36 amNNE 2.9 5.1----30.18- 27.1-----
2024-02-25 10:30 amNNE 2.9 6.0------ 27.1-----
2024-02-25 10:24 am N 2.9 5.1------ 26.8-----
2024-02-25 10:18 amENE 4.1 6.0----30.18-------
2024-02-25 10:12 amENE 5.1 6.0----30.18-------
2024-02-25 10:06 am NE 2.9 5.1----30.19-------
2024-02-25 10:00 am NE 5.1 8.0----30.19+0.00------
2024-02-25 09:54 amENE 5.1 6.0----30.18-------
2024-02-25 09:48 am-------30.19- 24.3-----
2024-02-25 09:42 am-------30.19- 24.3-----
2024-02-25 09:36 am-------30.19- 24.8-----
2024-02-25 09:30 am NE 5.1 8.0------ 24.4-----
2024-02-25 09:24 am NE 5.1 8.9------ 24.8-----
2024-02-25 09:18 am NE 6.0 8.0----30.19-------
2024-02-25 09:12 am NE 4.1 8.9----30.19-------
2024-02-25 09:06 amNNE 5.1 8.0----30.19-------
2024-02-25 09:00 am NE 4.1 8.0----30.19-------
2024-02-25 08:54 am N 4.1 9.9----30.19-------